Weather History for Wheeler AAF, HI

Change the Weather History Date:

Sunday, September 22, 2013

  Actual Average Record
Temperature  
Mean Temperature 76 °F -  
Max Temperature 82 °F 82 °F 86 °F (1997)
Min Temperature 69 °F 68 °F 63 °F (2011)
Cooling Degree Days 10    
Growing Degree Days 26 (Base 50)    
Moisture  
Dew Point 66 °F    
Average Humidity 80    
Maximum Humidity 94    
Minimum Humidity 54    
Precipitation  
Precipitation 0.05 in - - ()
Sea Level Pressure  
Sea Level Pressure 30.02 in    
Wind  
Wind Speed 4 mph (NW)    
Max Wind Speed 18 mph    
Max Gust Speed -    
Visibility 9 miles    
Events Rain    
Averages and records for this station are not official NWS values.
T = Trace of Precipitation, MM = Missing Value Source: NWS Daily Summary

Daily Weather History Graph

Daily Weather History Graph

Search for Another Location

Airport:

Trip Planner

Search our weather history database for the weather conditions in past years. The results will help you decide how hot, cold, wet, or windy it might be!

Date:

Astronomy

Sep. 22, 2013 Rise Set
Actual Time 6:21 AM HST 6:27 PM HST
Civil Twilight 5:58 AM HST 6:50 PM HST
Nautical Twilight 5:33 AM HST 7:16 PM HST
Astronomical Twilight 5:07 AM HST 7:41 PM HST
Moon 8:57 PM HST (9/22) 9:23 AM HST (9/22)
Length of Visible Light 12h 51m
Length of Day
12h 06m
Waning Gibbous, 87% of the Moon is Illuminated
Sep 22
Waning Gibbous
Sep 26
Last Quarter
Oct 4
New
Oct 11
First Quarter
Oct 18
Full

Hourly Weather History & Observations

Time (HST) Temp. Heat Index Dew Point Humidity Pressure Visibility Wind Dir Wind Speed Gust Speed Precip Events Conditions
12:22 AM 71.6 °F - 66.2 °F 83% 30.05 in 10.0 mi NNE 1.2 mph - N/A   Light Drizzle
12:23 AM 71.6 °F - 66.2 °F 83% 30.05 in 10.0 mi Variable 1.2 mph - N/A   Scattered Clouds
12:39 AM 71.6 °F - 66.2 °F 83% 30.05 in 9.0 mi SW 2.3 mph - N/A Rain Light Rain
12:40 AM 71.6 °F - 66.2 °F 83% 30.05 in 8.0 mi Variable 2.3 mph - N/A   Scattered Clouds
12:41 AM 71.6 °F - 66.2 °F 83% 30.05 in 8.0 mi South 2.3 mph - N/A Rain Rain
12:42 AM 71.6 °F - 66.2 °F 83% 30.05 in 7.0 mi Variable 2.3 mph - N/A   Scattered Clouds
12:43 AM 71.6 °F - 66.2 °F 83% 30.05 in 6.0 mi WSW 1.2 mph - N/A Rain Light Rain
12:44 AM 71.6 °F - 66.2 °F 83% 30.05 in 5.0 mi Variable 1.2 mph - N/A   Scattered Clouds
12:45 AM 71.6 °F - 66.2 °F 83% 30.05 in 5.0 mi West 2.3 mph - N/A Rain Heavy Rain
12:46 AM 71.6 °F - 66.2 °F 83% 30.05 in 4.0 mi West 3.5 mph - N/A   Scattered Clouds
12:56 AM - - - N/A% 30.05 in 6.0 mi Variable 2.3 mph - N/A   Scattered Clouds
12:57 AM - - - N/A% 30.05 in 6.0 mi Variable 2.3 mph - N/A   Haze
12:58 AM - - - N/A% 30.05 in 6.0 mi SW 2.3 mph - 0.03 in   Haze
1:31 AM 69.8 °F - 66.2 °F 88% 30.03 in 10.0 mi WNW 4.6 mph - N/A Rain Light Rain
1:32 AM 69.8 °F - 66.2 °F 88% 30.03 in 10.0 mi West 5.8 mph - N/A   Scattered Clouds
1:33 AM 69.8 °F - 66.2 °F 88% 30.03 in 10.0 mi West 4.6 mph - N/A   Light Drizzle
1:34 AM 69.8 °F - 66.2 °F 88% 30.03 in 10.0 mi West 4.6 mph - N/A   Scattered Clouds
1:35 AM 69.8 °F - 66.2 °F 88% 30.03 in 10.0 mi West 3.5 mph - N/A   Drizzle
1:36 AM 69.8 °F - 66.2 °F 88% 30.03 in 10.0 mi West 3.5 mph - N/A   Scattered Clouds
1:37 AM 69.8 °F - 66.2 °F 88% 30.03 in 10.0 mi West 3.5 mph - N/A   Light Drizzle
1:38 AM 69.8 °F - 66.2 °F 88% 30.03 in 10.0 mi West 3.5 mph - N/A   Scattered Clouds
1:41 AM 69.8 °F - 66.2 °F 88% 30.03 in 10.0 mi Variable 3.5 mph - N/A   Light Drizzle
1:42 AM 69.8 °F - 66.2 °F 88% 30.03 in 10.0 mi Variable 2.3 mph - N/A   Scattered Clouds
1:58 AM 69.8 °F - 68.0 °F 94% 29.99 in 10.0 mi West 4.6 mph - 0.01 in   Scattered Clouds
2:58 AM 69.8 °F - 68.0 °F 94% 29.98 in 10.0 mi NE 9.2 mph - 0.00 in   Scattered Clouds
3:18 AM 69.8 °F - 66.2 °F 88% 30.02 in 10.0 mi Variable 1.2 mph - N/A Rain Light Rain
3:19 AM 69.8 °F - 66.2 °F 88% 30.02 in 10.0 mi Variable 1.2 mph - N/A   Partly Cloudy
3:20 AM 69.8 °F - 66.2 °F 88% 30.02 in 10.0 mi Variable 1.2 mph - N/A   Light Drizzle
3:21 AM 69.8 °F - 66.2 °F 88% 30.02 in 10.0 mi Variable 1.2 mph - N/A   Partly Cloudy
3:23 AM 69.8 °F - 66.2 °F 88% 30.02 in 10.0 mi Variable 2.3 mph - N/A   Light Drizzle
3:24 AM 69.8 °F - 66.2 °F 88% 30.02 in 10.0 mi Variable 2.3 mph - N/A   Partly Cloudy
3:25 AM 69.8 °F - 66.2 °F 88% 30.02 in 10.0 mi WNW 2.3 mph - N/A   Light Drizzle
3:26 AM 69.8 °F - 66.2 °F 88% 30.02 in 10.0 mi WNW 2.3 mph - N/A   Partly Cloudy
3:58 AM 69.8 °F - 66.2 °F 88% 29.99 in 10.0 mi Calm Calm - 0.00 in   Partly Cloudy
4:58 AM 69.8 °F - 66.2 °F 88% 29.99 in 10.0 mi WSW 4.6 mph - 0.01 in   Partly Cloudy
5:58 AM 69.8 °F - 66.2 °F 88% 30.01 in 10.0 mi WNW 4.6 mph - N/A   Mostly Cloudy
6:18 AM 69.8 °F - 66.2 °F 88% 30.04 in 10.0 mi North 2.3 mph - N/A   Light Drizzle
6:19 AM 69.8 °F - 66.2 °F 88% 30.04 in 10.0 mi North 1.2 mph - N/A   Mostly Cloudy
6:20 AM 69.8 °F - 66.2 °F 88% 30.04 in 10.0 mi Calm Calm - N/A   Light Drizzle
6:21 AM 69.8 °F - 66.2 °F 88% 30.04 in 10.0 mi Calm Calm - N/A   Mostly Cloudy
6:58 AM 71.6 °F - 66.2 °F 83% 30.01 in 10.0 mi North 5.8 mph - 0.00 in   Mostly Cloudy
7:58 AM 71.6 °F - 68.0 °F 88% 30.03 in 10.0 mi NNW 3.5 mph - 0.00 in   Mostly Cloudy
8:58 AM 75.2 °F - 68.0 °F 78% 30.04 in 10.0 mi ESE 4.6 mph - N/A   Scattered Clouds
9:58 AM 78.8 °F - 66.2 °F 65% 30.03 in 10.0 mi ENE 12.7 mph - N/A   Mostly Cloudy
10:58 AM 80.6 °F 82.3 °F 64.4 °F 58% 30.02 in 10.0 mi ENE 18.4 mph - N/A   Clear
11:23 AM 80.6 °F 82.3 °F 64.4 °F 58% 30.04 in 10.0 mi NE 16.1 mph - N/A   Clear
11:58 AM 82.4 °F 83.9 °F 64.4 °F 54% 30.03 in 10.0 mi ENE 16.1 mph - N/A   Clear
12:58 PM 82.4 °F 83.9 °F 64.4 °F 54% 29.98 in 10.0 mi NE 15.0 mph - N/A   Partly Cloudy
1:58 PM 80.6 °F 81.8 °F 62.6 °F 54% 29.97 in 10.0 mi ENE 10.4 mph - N/A   Scattered Clouds
2:58 PM 80.6 °F 81.8 °F 62.6 °F 54% 29.96 in 10.0 mi ENE 16.1 mph - N/A   Overcast
3:58 PM 80.6 °F 82.3 °F 64.4 °F 58% 29.96 in 10.0 mi ENE 12.7 mph - N/A   Partly Cloudy
4:58 PM 78.8 °F - 64.4 °F 61% 29.95 in 10.0 mi NE 11.5 mph - N/A   Scattered Clouds
5:58 PM 76.6 °F - 64.2 °F 65% 29.98 in 10.0 mi Variable 3.5 mph - N/A   Clear
6:58 PM 75.2 °F - 64.4 °F 69% 29.99 in 10.0 mi Variable 5.8 mph - N/A   Clear
7:58 PM 73.4 °F - 64.4 °F 73% 30.01 in 10.0 mi North 4.6 mph - N/A   Clear
8:58 PM 69.8 °F - 62.6 °F 78% 30.03 in 10.0 mi WNW 6.9 mph - N/A   Clear
9:58 PM 71.6 °F - 64.4 °F 78% 30.02 in 10.0 mi WNW 4.6 mph - N/A   Scattered Clouds
10:58 PM 71.6 °F - 64.4 °F 78% 30.01 in 10.0 mi NW 3.5 mph - N/A   Partly Cloudy
11:58 PM 69.8 °F - 64.4 °F 83% 30.01 in 10.0 mi NW 4.6 mph - N/A   Clear